Location: Czekanka
(50.4925°N, 19.2643°E)
Time: 11:33:30
(UTC+00:00)

NPP - Pass Details

Date: 15 June 2024
Orbit: 826 x 828 km, 98.7° (Epoch: 16 July)

Event Time Altitude Azimuth Distance (km) Brightness Sun altitude
Rises 00:25:56 0° 16° (NNE) 3,381 8.8 -12.8°
Reaches altitude 10° 00:28:19 10° 19° (NNE) 2,443 7.6 -12.6°
Maximum altitude 00:33:43 68° 103° (ESE) 891 3.9 -12.3°
Enters shadow 00:38:23 14° 185° (S) 2,157 5.3 -11.9°
